Home   Weather   Port Said   Past weeks

Flag for Egypt Past Weather in Port Said, Egypt — Yesterday and Last 2 Weeks

Now
64 °F

Scattered clouds.


Feels Like: 64 °F
Forecast: 62 / 68 °F
Wind: 16 mph from Northwest

Location: Port Said Airport

Current Time: Apr 23, 2017 at 7:31:50 am

Latest Report: Apr 23, 2017 at 6:00 am


Visibility: N/A

Pressure: 29.92 "Hg

Humidity: 83%

Dew Point: 59 °F

Location of Port SaidLocation

Past Weather in Port Said — Graph

°F

Port Said Temperature Yesterday

Maximum temperature yesterday: 77 °F (at 11:00 am)
Minimum temperature yesterday: 70 °F (at 3:00 am)
Average temperature yesterday: 73 °F

High & Low Weather Summary for the Past Weeks

 TemperatureHumidityPressure
High86 °F (Apr 18, 2:00 pm)100% (Apr 13, 5:00 am)30.12 "Hg (Apr 13, 5:00 am)
Low59 °F (Apr 14, 4:00 am)27% (Apr 18, 2:00 pm)29.59 "Hg (Apr 12, 8:00 am)
Average67 °F75%29.97 "Hg
* Reported Apr 8 6:00 am — Apr 23 6:00 am, Port Said, Weather by CustomWeather, © 2017

Note: Actual official high and low records may vary slightly from our data, if they occured in-between our weather recording intervals... More about our weather records

Advertising

Port Said Weather History for the Previous 24 Hours

Scroll right to see more
 ConditionsComfort  
Time TempWeatherWind HumidityBarometerVisibility
6:00 am
Sun, Apr 23
64 °FScattered clouds.16 mph83%29.92 "HgN/A
5:00 am64 °FPassing clouds.22 mph83%29.89 "HgN/A
4:00 am64 °FPassing clouds.26 mph88%29.86 "HgN/A
3:00 am66 °FPassing clouds.23 mph88%29.86 "HgN/A
1:00 am68 °FClear.28 mph88%29.83 "Hg10 mi
12:00 am70 °FClear.33 mph83%29.80 "Hg10 mi
11:00 pm
Sat, Apr 22
70 °FClear.30 mph83%29.80 "Hg10 mi
10:00 pm70 °FClear.29 mph83%29.77 "Hg10 mi
9:00 pm70 °FClear.23 mph83%29.74 "Hg10 mi
8:00 pm70 °FClear.13 mph88%29.71 "Hg10 mi
7:00 pm72 °FClear.12 mph83%29.71 "Hg10 mi
6:00 pm72 °FSunny.10 mph83%29.71 "Hg10 mi
5:00 pm73 °FSunny.13 mph78%29.68 "Hg10 mi
4:00 pm75 °FSunny.9 mph74%29.71 "Hg10 mi
3:00 pm75 °FSunny.13 mph74%29.71 "Hg10 mi
2:00 pm77 °FSunny.14 mph65%29.74 "Hg10 mi
1:00 pm77 °FSunny.14 mph69%29.77 "Hg10 mi
12:00 pm77 °FSunny.12 mph74%29.77 "Hg10 mi
11:00 am77 °FSunny.8 mph74%29.80 "Hg10 mi
10:00 am73 °FSunny.6 mph74%29.80 "Hg10 mi
9:00 am73 °FSunny.8 mph69%29.80 "Hg10 mi
8:00 am73 °FSunny.8 mph69%29.83 "Hg10 mi
7:00 am72 °FSunny.5 mph73%29.83 "Hg10 mi
Weather by CustomWeather, © 2017

See weather overviewHow to use our weather pages